SCP
0 0 0 0 0 0 0 0 0 0 0 0 0 0 0 0 0 0 0 0 0 0 0 0 0 0 0 0 0 0 0 0 0 0 0 0 0 0 0 0 0 0 0 0 0
0 0 0 0 0 0 0 0 0 0 0 0 0 0 0 0 0 0 0 0 0 0 0 0 0 0 0 0 0 0 0 0 0 0 0 0 0 0 0 0 0 0 0 0 0
0 0 0 0 0 0 0 0 0 0 0 0 0 0 0 0 0 0 0 0 0 0 0 0 0 0 0 0 0 0 0 0 0 0 0 0 0 0 0 0 0 0 0 0 0
0 0 0 0 0 0 0 0 0 0 0 0 0 0 0 0 0 0 0 0 0 0 0 0 0 0 0 0 0 0 0 0 0 0 0 0 0 0 0 0 0 0 0 0 0
0 0 0 0 0 0 0 0 0 0 0 0 0 0 0 0 0 0 0 0 0 0 0 0 0 0 0 0 0 0 0 0 0 0 0 0 0 0 0 0 0 0 0 0 0
0 0 0 0 0 0 0 0 0 0 0 0 0 0 0 0 0 0 0 0 0 0 0 0 0 0 0 0 0 0 0 0 0 0 0 0 0 0 0 0 0 0 0 0 0
0 0 0 0 0 0 0 0 0 0 0 0 0 0 0 0 0 0 0 0 0 0 0 0 0 0 0 0 0 0 0 0 0 0 0 0 0 0 0 0 0 0 0 0 0
0 0 0 0 0 0 0 0 0 0 0 0 0 0 0 0 0 0 0 0 0 0 0 0 0 0 0 0 0 0 0 0 0 0 0 0 0 0 0 0 0 0 0 0 0
0 0 0 0 0 0 0 0 0 0 0 0 0 0 0 0 0 0 0 0 0 0 0 0 0 0 0 0 0 0 0 0 0 0 0 0 0 0 0 0 0 0 0 0 0
0 0 0 0 0 0 0 0 0 0 0 0 0 0 0 0 0 0 0 0 0 0 0 0 0 0 0 0 0 0 0 0 0 0 0 0 0 0 0 0 0 0 0 0 0
0 0 0 0 0 0 0 0 0 0 0 0 0 0 0 0 0 0 0 0 0 0 0 0 0 0 0 0 0 0 0 0 0 0 0 0 0 0 0 0 0 0 0 0 0
0 0 0 0 0 0 0 0 0 0 0 0 0 0 0 0 0 0 0 0 0 0 0 0 0 0 0 0 0 0 0 0 0 0 0 0 0 0 0 0 0 0 0 0 0
0 0 0 0 0 0 0 0 0 0 0 0 0 0 0 0 0 0 0 0 0 0 0 0 0 0 0 0 0 0 0 0 0 0 0 0 0 0 0 0 0 0 0 0 0
0 0 0 0 0 0 0 0 0 0 0 0 0 0 0 0 0 0 0 0 0 0 0 0 0 0 0 0 0 0 0 0 0 0 0 0 0 0 0 0 0 0 0 0 0
0 0 0 0 0 0 0 0 0 0 0 0 0 0 0 0 0 0 0 0 0 0 0 0 0 0 0 0 0 0 0 0 0 0 0 0 0 0 0 0 0 0 0 0 0
0 0 0 0 0 0 0 0 0 0 0 0 0 0 0 0 0 0 0 0 0 0 0 0 0 0 0 0 0 0 0 0 0 0 0 0 0 0 0 0 0 0 0 0 0
0 0 0 0 0 0 0 0 0 0 0 0 0 0 0 0 0 0 0 0 0 0 0 0 0 0 0 0 0 0 0 0 0 0 0 0 0 0 0 0 0 0 0 0 0
0 0 0 0 0 0 0 0 0 0 0 0 0 0 0 0 0 0 0 0 0 0 0 0 0 0 0 0 0 0 0 0 0 0 0 0 0 0 0 0 0 0 0 0 0
0 0 0 0 0 0 0 0 0 0 0 0 0 0 0 0 0 0 0 0 0 0 0 0 0 0 0 0 0 0 0 0 0 0 0 0 0 0 0 0 0 0 0 0 0
-0 0 0 0 0 0 0 0 0 0 0 0 0 0 0 0 0 0 0 0 0 0 0 0 0 0 0 0 0 0 0 0 0 0 0 0 0 0 0 0 0 0 0 0 0
0 0 0 0 0 0 0 0 0 0 0 0 0 0 0 0 0 0 0 0 0 0 0 0 0 0 0 0 0 0 0 0 0 0 0 0 0 0 0 0 0 0 0 0 0
-0 0 0 0 0 0 0 0 0 0 0 0 0 0 0 0 0 0 0 0 0 0 0 0 0 0 0 0 0 0 0 0 0 0 0 0 0 0 0 0 0 0 0 0 0
0 0 0 0 0 0 0 0 0 0 0 0 0 0 0 0 0 0 0 0 0 0 0 0 0 0 0 0 0 0 0 0 0 0 0 0 0 0 0 0 0 0 0 -0 -0
0 0 0 0 0 0 0 0 0 0 0 0 0 0 0 0 0 0 0 0 0 0 0 0 0 0 0 0 0 0 0 0 0 0 0 0 0 0 0 0 0 0 0 0 -0
0 0 0 0 0 0 0 0 0 0 0 0 0 0 0 0 0 0 0 0 0 0 0 0 0 0 0 0 0 0 0 0 0 0 0 0 0 0 0 0 0 0 0 0 0
0 0 0 0 0 0 0 0 0 0 0 0 0 0 0 0 0 0 0 0 0 0 0 0 0 0 0 0 0 0 0 0 0 0 0 0 0 0 0 0 0 0 0 0 0
0 0 0 0 0 0 0 0 0 0 0 0 0 0 0 0 0 0 0 0 0 0 0 0 0 0 0 0 0 0 0 0 0 0 0 0 0 0 0 0 0 0 0 0 0
Wind_Speed_500mb
14 14 15 16 18 19 20 22 24 23 24 23 20 19 17 15 13 10 9 10 10 9 4 2 9 15 16 11 7 6 6 5 8 13 6 4 3 2 4 9 8 12 11 8 12
13 14 13 14 15 18 21 24 26 26 28 28 25 22 20 18 15 14 11 10 7 5 4 6 10 16 9 9 6 7 5 13 5 6 2 5 2 8 6 4 11 19 26 19 19
15 13 14 14 16 18 19 23 25 28 32 28 25 23 21 18 15 7 13 9 8 5 4 8 9 12 6 7 8 6 9 5 4 6 3 3 7 7 4 8 29 22 19 25 30
17 18 18 18 18 19 21 23 26 28 32 29 25 21 19 13 7 5 7 8 8 5 6 7 9 7 5 6 7 4 12 10 7 4 5 5 9 13 22 30 30 32 27 23 37
17 21 23 23 25 25 25 26 26 29 33 28 23 19 16 10 12 11 11 11 8 5 4 7 9 8 6 6 3 6 5 6 11 15 15 17 21 20 44 55 48 47 30 23 36
21 22 25 26 29 31 32 33 32 30 31 28 25 19 12 7 12 12 12 11 8 6 5 7 6 8 3 3 5 1 10 19 15 6 9 6 8 2 10 6 7 15 22 42 32
28 31 31 32 31 32 34 35 36 36 34 29 23 18 19 20 14 12 12 9 6 5 5 5 8 7 4 2 4 5 11 12 3 1 6 3 15 18 37 30 25 16 12 12 33
34 37 36 36 36 36 35 35 35 35 32 29 25 22 13 16 16 15 11 9 5 3 4 3 5 5 2 2 7 5 5 7 2 3 2 5 17 7 10 2 10 8 10 15 15
34 35 38 37 37 36 35 35 35 34 31 28 23 16 14 13 15 16 11 8 7 4 3 3 4 3 4 8 8 8 7 9 11 6 4 4 16 7 4 34 53 49 43 40 33
34 32 32 33 35 37 38 38 37 32 27 24 22 10 17 8 11 14 13 8 5 4 3 4 4 6 5 6 9 10 8 8 9 6 2 5 28 24 30 36 49 52 43 36 40
23 22 22 26 29 38 45 46 19 11 14 17 5 7 4 12 13 14 14 9 9 7 8 3 6 16 21 13 4 7 6 7 3 3 4 8 18 38 20 35 26 21 29 24 18
29 34 29 26 28 30 33 17 10 11 20 28 42 41 33 21 12 20 18 12 10 11 11 6 16 11 4 7 10 7 3 10 5 3 0 8 23 33 9 3 9 19 23 15 8
41 39 37 32 34 17 20 12 16 18 9 18 24 19 19 25 14 16 21 13 8 12 15 14 3 7 12 9 10 7 10 8 8 3 4 11 15 8 2 5 14 17 15 14 17
38 42 40 38 21 21 15 17 18 12 5 11 6 7 12 12 8 15 23 10 4 16 13 12 6 10 7 8 12 7 8 7 6 6 7 6 9 9 3 10 11 18 23 27 31
43 50 45 38 34 22 20 19 17 4 7 1 5 6 11 8 8 4 14 11 9 11 11 10 12 9 8 8 13 6 7 9 6 8 7 8 6 13 3 3 7 6 19 26 33
41 39 39 28 29 23 19 17 12 1 17 2 4 5 5 4 2 7 5 5 4 6 2 7 1 5 6 6 3 16 11 12 8 6 4 9 8 9 6 5 4 4 15 28 33
49 43 37 27 14 14 9 3 6 11 6 7 5 5 4 9 4 7 7 7 11 8 9 2 6 2 5 10 7 6 11 4 6 4 10 3 5 14 8 4 10 15 22 29 35
54 43 36 22 17 17 12 1 13 4 11 6 1 4 8 11 4 6 4 6 12 3 5 11 9 15 8 8 12 11 11 9 14 7 6 7 11 8 6 4 10 20 25 28 30
54 47 26 12 10 14 13 11 16 14 7 5 1 5 6 4 5 8 12 10 13 27 15 10 6 2 3 1 4 10 10 6 14 1 5 5 10 13 4 7 11 24 26 26 24
53 53 22 8 6 14 9 25 11 5 4 6 8 11 8 6 7 6 13 7 9 19 2 11 3 1 2 2 2 6 5 5 3 5 6 7 9 9 14 16 12 11 19 19 18
42 26 10 12 7 16 12 13 9 12 8 9 7 7 11 6 9 7 9 7 7 6 6 7 5 4 6 15 16 5 5 4 2 3 8 2 11 9 22 20 22 15 17 21 18
27 7 10 22 3 11 6 7 5 9 6 10 3 7 9 7 9 9 13 10 5 15 13 9 6 8 10 0 2 2 11 12 8 10 5 3 11 10 18 17 31 22 22 20 17
29 26 20 13 8 15 11 11 8 7 6 4 8 11 7 8 5 11 6 8 4 6 12 10 4 3 13 7 5 9 10 6 7 5 12 11 9 6 12 13 33 26 22 20 26
17 7 8 13 19 7 6 16 17 12 9 13 8 3 2 5 8 8 5 4 3 3 3 4 4 12 15 10 8 9 10 12 9 7 10 13 7 6 14 17 23 28 22 18 20
14 9 10 7 10 17 16 9 5 6 11 11 7 17 20 17 6 15 6 7 5 5 3 8 10 7 5 5 3 5 8 16 24 19 14 12 20 17 25 28 38 45 37 25 19
17 11 11 13 16 8 14 13 16 15 10 13 15 18 12 15 27 12 2 5 11 3 9 1 6 4 8 5 4 8 17 16 19 7 17 7 18 13 12 28 28 46 39 34 38
46 48 35 24 6 7 9 12 14 5 20 45 31 26 22 25 30 36 27 27 18 9 8 6 10 7 12 5 5 11 35 20 14 14 14 20 34 9 12 18 45 58 50 46 37
Wind_Direction_500mb
4 7 9 3 359 356 355 350 346 341 333 325 318 316 315 313 294 285 289 295 305 309 281 225 159 157 154 159 148 147 66 219 238 167 254 354 357 221 249 259 235 210 224 240 201
4 0 2 1 357 353 350 349 345 339 334 324 318 313 312 308 292 272 262 289 295 295 216 182 161 159 154 168 171 115 134 225 231 212 269 331 335 320 319 331 259 248 245 238 221
0 356 349 346 345 344 342 342 341 338 335 325 316 309 306 310 300 251 224 263 279 276 226 191 182 171 153 161 196 159 207 220 291 272 270 293 287 257 253 258 250 261 273 241 225
347 344 340 336 333 332 331 331 334 335 334 327 320 306 303 301 248 225 235 276 272 252 225 196 183 176 141 192 184 220 251 244 296 322 327 296 303 288 237 250 271 276 272 254 220
328 330 328 326 324 322 321 324 327 329 333 328 324 315 305 286 264 260 271 283 267 244 232 214 197 178 186 194 170 199 302 283 274 282 276 272 256 260 271 277 270 261 259 241 218
321 322 318 317 315 314 315 318 321 322 326 324 319 313 297 263 264 254 261 267 267 244 232 204 212 208 203 220 171 271 276 277 279 228 256 252 269 343 264 242 294 297 269 239 219
334 326 323 319 312 308 308 311 314 316 317 318 314 306 282 266 257 259 260 257 246 235 213 201 206 196 170 321 299 300 312 318 220 223 204 343 289 231 270 265 284 279 275 289 244
318 321 322 320 317 314 311 307 304 304 303 304 304 301 263 256 250 247 249 239 232 202 169 152 178 165 206 345 4 4 38 340 348 105 197 164 267 256 296 328 329 319 293 292 277
297 301 310 316 318 318 317 311 306 300 292 287 286 283 273 266 235 230 221 198 197 181 134 146 142 109 82 92 360 3 241 215 310 47 322 160 275 284 171 320 308 301 292 278 258
287 288 299 307 318 321 322 320 314 295 279 274 259 278 243 233 216 206 192 195 222 207 179 176 95 70 46 113 225 210 227 245 254 347 17 263 271 278 298 311 301 303 301 284 251
341 319 301 301 306 316 317 320 305 289 267 236 234 243 220 205 205 213 222 234 200 185 182 89 111 214 208 199 143 137 190 243 232 50 332 257 278 283 301 298 308 327 327 311 269
330 333 328 317 317 319 316 333 340 310 303 271 255 250 250 235 252 235 225 194 174 188 126 53 228 210 146 164 208 206 188 260 289 50 292 350 284 281 284 313 354 342 355 6 132
322 325 321 318 324 321 330 340 334 334 275 279 242 242 240 227 231 221 196 188 171 168 189 177 197 118 157 164 165 211 183 200 210 339 63 326 289 332 9 38 26 39 52 70 129
297 299 304 317 314 327 323 332 332 334 21 264 220 228 196 181 247 192 192 186 211 209 166 233 242 179 176 200 148 217 181 131 135 92 228 10 274 294 359 24 31 49 81 92 116
294 301 292 305 300 303 310 323 332 325 307 164 180 171 169 194 134 186 187 185 195 183 141 236 165 171 174 205 171 219 105 111 93 89 48 321 73 264 317 34 9 67 105 114 120
333 320 310 298 270 280 297 310 328 238 240 211 141 162 138 214 192 132 167 170 122 138 228 256 342 188 190 81 77 146 76 50 59 92 352 237 145 269 197 216 275 177 143 133 131
330 332 324 296 264 238 251 252 290 224 335 283 242 165 202 200 219 180 168 184 166 110 223 345 215 180 149 88 40 96 97 352 358 4 220 131 69 247 288 248 215 189 163 148 142
330 331 324 288 251 237 252 97 246 246 249 329 281 158 203 154 241 187 165 261 228 165 128 171 287 171 187 196 178 183 164 166 203 196 233 1 228 242 222 4 146 171 153 150 154
325 331 323 292 256 221 199 212 210 196 208 177 328 219 257 178 185 156 213 227 219 181 188 168 258 60 67 73 122 186 205 140 105 62 50 208 270 307 160 94 113 133 141 147 155
327 331 329 262 245 201 208 239 225 229 107 92 210 188 238 219 176 175 192 201 225 192 217 199 67 335 139 136 37 191 155 129 350 153 245 280 274 221 184 180 170 127 133 150 168
327 327 358 342 235 210 225 242 283 253 223 193 237 251 223 219 213 224 230 278 187 153 184 155 153 161 142 204 182 154 210 216 118 108 176 230 257 224 182 175 169 167 152 164 181
333 326 312 331 252 226 239 207 309 314 289 250 212 231 218 208 227 240 230 232 194 158 174 186 129 175 202 143 63 213 206 168 160 203 225 160 271 318 173 168 163 160 182 190 198
313 284 278 262 237 234 241 280 276 234 275 296 255 211 188 230 257 216 239 308 237 199 172 191 212 42 337 359 2 219 200 174 103 67 199 147 256 18 105 161 176 166 193 200 175
301 295 275 212 242 280 261 256 257 244 261 270 280 343 46 267 205 273 277 322 316 237 48 151 170 178 207 193 134 197 194 184 151 146 164 221 170 159 210 193 207 207 217 202 196
214 261 267 284 258 249 269 286 311 293 247 246 286 238 244 257 245 243 245 284 232 230 140 157 214 171 255 307 277 229 197 186 205 217 188 206 211 214 206 210 220 236 243 221 220
236 228 243 264 286 237 208 227 243 270 253 277 240 268 281 258 250 287 235 217 251 32 185 33 229 94 317 1 301 283 260 211 220 228 257 260 263 222 182 214 243 258 251 225 255
292 251 238 244 202 262 232 238 263 234 251 242 256 270 268 274 279 283 264 252 269 194 217 170 138 122 257 354 65 315 236 200 204 204 171 220 241 147 186 206 237 256 267 263 252
Wind_Speed_850mb
14 14 15 16 18 19 20 22 24 23 24 23 20 19 17 15 13 10 9 10 10 9 4 2 9 15 16 11 7 6 6 5 8 13 6 4 3 2 4 9 8 12 11 8 12
13 14 13 14 15 18 21 24 26 26 28 28 25 22 20 18 15 14 11 10 7 5 4 6 10 16 9 9 6 7 5 13 5 6 2 5 2 8 6 4 11 19 26 19 19
15 13 14 14 16 18 19 23 25 28 32 28 25 23 21 18 15 7 13 9 8 5 4 8 9 12 6 7 8 6 9 5 4 6 3 3 7 7 4 8 29 22 19 25 30
17 18 18 18 18 19 21 23 26 28 32 29 25 21 19 13 7 5 7 8 8 5 6 7 9 7 5 6 7 4 12 10 7 4 5 5 9 13 22 30 30 32 27 23 37
17 21 23 23 25 25 25 26 26 29 33 28 23 19 16 10 12 11 11 11 8 5 4 7 9 8 6 6 3 6 5 6 11 15 15 17 21 20 44 55 48 47 30 23 36
21 22 25 26 29 31 32 33 32 30 31 28 25 19 12 7 12 12 12 11 8 6 5 7 6 8 3 3 5 1 10 19 15 6 9 6 8 2 10 6 7 15 22 42 32
28 31 31 32 31 32 34 35 36 36 34 29 23 18 19 20 14 12 12 9 6 5 5 5 8 7 4 2 4 5 11 12 3 1 6 3 15 18 37 30 25 16 12 12 33
34 37 36 36 36 36 35 35 35 35 32 29 25 22 13 16 16 15 11 9 5 3 4 3 5 5 2 2 7 5 5 7 2 3 2 5 17 7 10 2 10 8 10 15 15
34 35 38 37 37 36 35 35 35 34 31 28 23 16 14 13 15 16 11 8 7 4 3 3 4 3 4 8 8 8 7 9 11 6 4 4 16 7 4 34 53 49 43 40 33
34 32 32 33 35 37 38 38 37 32 27 24 22 10 17 8 11 14 13 8 5 4 3 4 4 6 5 6 9 10 8 8 9 6 2 5 28 24 30 36 49 52 43 36 40
23 22 22 26 29 38 45 46 19 11 14 17 5 7 4 12 13 14 14 9 9 7 8 3 6 16 21 13 4 7 6 7 3 3 4 8 18 38 20 35 26 21 29 24 18
29 34 29 26 28 30 33 17 10 11 20 28 42 41 33 21 12 20 18 12 10 11 11 6 16 11 4 7 10 7 3 10 5 3 0 8 23 33 9 3 9 19 23 15 8
41 39 37 32 34 17 20 12 16 18 9 18 24 19 19 25 14 16 21 13 8 12 15 14 3 7 12 9 10 7 10 8 8 3 4 11 15 8 2 5 14 17 15 14 17
38 42 40 38 21 21 15 17 18 12 5 11 6 7 12 12 8 15 23 10 4 16 13 12 6 10 7 8 12 7 8 7 6 6 7 6 9 9 3 10 11 18 23 27 31
43 50 45 38 34 22 20 19 17 4 7 1 5 6 11 8 8 4 14 11 9 11 11 10 12 9 8 8 13 6 7 9 6 8 7 8 6 13 3 3 7 6 19 26 33
41 39 39 28 29 23 19 17 12 1 17 2 4 5 5 4 2 7 5 5 4 6 2 7 1 5 6 6 3 16 11 12 8 6 4 9 8 9 6 5 4 4 15 28 33
49 43 37 27 14 14 9 3 6 11 6 7 5 5 4 9 4 7 7 7 11 8 9 2 6 2 5 10 7 6 11 4 6 4 10 3 5 14 8 4 10 15 22 29 35
54 43 36 22 17 17 12 1 13 4 11 6 1 4 8 11 4 6 4 6 12 3 5 11 9 15 8 8 12 11 11 9 14 7 6 7 11 8 6 4 10 20 25 28 30
54 47 26 12 10 14 13 11 16 14 7 5 1 5 6 4 5 8 12 10 13 27 15 10 6 2 3 1 4 10 10 6 14 1 5 5 10 13 4 7 11 24 26 26 24
53 53 22 8 6 14 9 25 11 5 4 6 8 11 8 6 7 6 13 7 9 19 2 11 3 1 2 2 2 6 5 5 3 5 6 7 9 9 14 16 12 11 19 19 18
42 26 10 12 7 16 12 13 9 12 8 9 7 7 11 6 9 7 9 7 7 6 6 7 5 4 6 15 16 5 5 4 2 3 8 2 11 9 22 20 22 15 17 21 18
27 7 10 22 3 11 6 7 5 9 6 10 3 7 9 7 9 9 13 10 5 15 13 9 6 8 10 0 2 2 11 12 8 10 5 3 11 10 18 17 31 22 22 20 17
29 26 20 13 8 15 11 11 8 7 6 4 8 11 7 8 5 11 6 8 4 6 12 10 4 3 13 7 5 9 10 6 7 5 12 11 9 6 12 13 33 26 22 20 26
17 7 8 13 19 7 6 16 17 12 9 13 8 3 2 5 8 8 5 4 3 3 3 4 4 12 15 10 8 9 10 12 9 7 10 13 7 6 14 17 23 28 22 18 20
14 9 10 7 10 17 16 9 5 6 11 11 7 17 20 17 6 15 6 7 5 5 3 8 10 7 5 5 3 5 8 16 24 19 14 12 20 17 25 28 38 45 37 25 19
17 11 11 13 16 8 14 13 16 15 10 13 15 18 12 15 27 12 2 5 11 3 9 1 6 4 8 5 4 8 17 16 19 7 17 7 18 13 12 28 28 46 39 34 38
46 48 35 24 6 7 9 12 14 5 20 45 31 26 22 25 30 36 27 27 18 9 8 6 10 7 12 5 5 11 35 20 14 14 14 20 34 9 12 18 45 58 50 46 37
Wind_Direction_850mb
4 7 9 3 359 356 355 350 346 341 333 325 318 316 315 313 294 285 289 295 305 309 281 225 159 157 154 159 148 147 66 219 238 167 254 354 357 221 249 259 235 210 224 240 201
4 0 2 1 357 353 350 349 345 339 334 324 318 313 312 308 292 272 262 289 295 295 216 182 161 159 154 168 171 115 134 225 231 212 269 331 335 320 319 331 259 248 245 238 221
0 356 349 346 345 344 342 342 341 338 335 325 316 309 306 310 300 251 224 263 279 276 226 191 182 171 153 161 196 159 207 220 291 272 270 293 287 257 253 258 250 261 273 241 225
347 344 340 336 333 332 331 331 334 335 334 327 320 306 303 301 248 225 235 276 272 252 225 196 183 176 141 192 184 220 251 244 296 322 327 296 303 288 237 250 271 276 272 254 220
328 330 328 326 324 322 321 324 327 329 333 328 324 315 305 286 264 260 271 283 267 244 232 214 197 178 186 194 170 199 302 283 274 282 276 272 256 260 271 277 270 261 259 241 218
321 322 318 317 315 314 315 318 321 322 326 324 319 313 297 263 264 254 261 267 267 244 232 204 212 208 203 220 171 271 276 277 279 228 256 252 269 343 264 242 294 297 269 239 219
334 326 323 319 312 308 308 311 314 316 317 318 314 306 282 266 257 259 260 257 246 235 213 201 206 196 170 321 299 300 312 318 220 223 204 343 289 231 270 265 284 279 275 289 244
318 321 322 320 317 314 311 307 304 304 303 304 304 301 263 256 250 247 249 239 232 202 169 152 178 165 206 345 4 4 38 340 348 105 197 164 267 256 296 328 329 319 293 292 277
297 301 310 316 318 318 317 311 306 300 292 287 286 283 273 266 235 230 221 198 197 181 134 146 142 109 82 92 360 3 241 215 310 47 322 160 275 284 171 320 308 301 292 278 258
287 288 299 307 318 321 322 320 314 295 279 274 259 278 243 233 216 206 192 195 222 207 179 176 95 70 46 113 225 210 227 245 254 347 17 263 271 278 298 311 301 303 301 284 251
341 319 301 301 306 316 317 320 305 289 267 236 234 243 220 205 205 213 222 234 200 185 182 89 111 214 208 199 143 137 190 243 232 50 332 257 278 283 301 298 308 327 327 311 269
330 333 328 317 317 319 316 333 340 310 303 271 255 250 250 235 252 235 225 194 174 188 126 53 228 210 146 164 208 206 188 260 289 50 292 350 284 281 284 313 354 342 355 6 132
322 325 321 318 324 321 330 340 334 334 275 279 242 242 240 227 231 221 196 188 171 168 189 177 197 118 157 164 165 211 183 200 210 339 63 326 289 332 9 38 26 39 52 70 129
297 299 304 317 314 327 323 332 332 334 21 264 220 228 196 181 247 192 192 186 211 209 166 233 242 179 176 200 148 217 181 131 135 92 228 10 274 294 359 24 31 49 81 92 116
294 301 292 305 300 303 310 323 332 325 307 164 180 171 169 194 134 186 187 185 195 183 141 236 165 171 174 205 171 219 105 111 93 89 48 321 73 264 317 34 9 67 105 114 120
333 320 310 298 270 280 297 310 328 238 240 211 141 162 138 214 192 132 167 170 122 138 228 256 342 188 190 81 77 146 76 50 59 92 352 237 145 269 197 216 275 177 143 133 131
330 332 324 296 264 238 251 252 290 224 335 283 242 165 202 200 219 180 168 184 166 110 223 345 215 180 149 88 40 96 97 352 358 4 220 131 69 247 288 248 215 189 163 148 142
330 331 324 288 251 237 252 97 246 246 249 329 281 158 203 154 241 187 165 261 228 165 128 171 287 171 187 196 178 183 164 166 203 196 233 1 228 242 222 4 146 171 153 150 154
325 331 323 292 256 221 199 212 210 196 208 177 328 219 257 178 185 156 213 227 219 181 188 168 258 60 67 73 122 186 205 140 105 62 50 208 270 307 160 94 113 133 141 147 155
327 331 329 262 245 201 208 239 225 229 107 92 210 188 238 219 176 175 192 201 225 192 217 199 67 335 139 136 37 191 155 129 350 153 245 280 274 221 184 180 170 127 133 150 168
327 327 358 342 235 210 225 242 283 253 223 193 237 251 223 219 213 224 230 278 187 153 184 155 153 161 142 204 182 154 210 216 118 108 176 230 257 224 182 175 169 167 152 164 181
333 326 312 331 252 226 239 207 309 314 289 250 212 231 218 208 227 240 230 232 194 158 174 186 129 175 202 143 63 213 206 168 160 203 225 160 271 318 173 168 163 160 182 190 198
313 284 278 262 237 234 241 280 276 234 275 296 255 211 188 230 257 216 239 308 237 199 172 191 212 42 337 359 2 219 200 174 103 67 199 147 256 18 105 161 176 166 193 200 175
301 295 275 212 242 280 261 256 257 244 261 270 280 343 46 267 205 273 277 322 316 237 48 151 170 178 207 193 134 197 194 184 151 146 164 221 170 159 210 193 207 207 217 202 196
214 261 267 284 258 249 269 286 311 293 247 246 286 238 244 257 245 243 245 284 232 230 140 157 214 171 255 307 277 229 197 186 205 217 188 206 211 214 206 210 220 236 243 221 220
236 228 243 264 286 237 208 227 243 270 253 277 240 268 281 258 250 287 235 217 251 32 185 33 229 94 317 1 301 283 260 211 220 228 257 260 263 222 182 214 243 258 251 225 255
292 251 238 244 202 262 232 238 263 234 251 242 256 270 268 274 279 283 264 252 269 194 217 170 138 122 257 354 65 315 236 200 204 204 171 220 241 147 186 206 237 256 267 263 252